Weather History for Ishigakijima, Japan

Change the Weather History Date:

Friday, January 18, 2013

  Actual Average Record
Temperature  
Mean Temperature 58 °F -  
Max Temperature 63 °F 68 °F 78 °F (2006)
Min Temperature 55 °F 61 °F 55 °F (2013)
Degree Days  
Heating Degree Days 6    
Growing Degree Days 8 (Base 50)    
Moisture  
Dew Point 44 °F    
Average Humidity 55    
Maximum Humidity 67    
Minimum Humidity 38    
Precipitation  
Precipitation 0.00 in - - ()
Sea Level Pressure  
Sea Level Pressure 30.32 in    
Wind  
Wind Speed 12 mph ()    
Max Wind Speed 17 mph    
Max Gust Speed -    
Visibility 7.7 miles    
Events Rain    
Averages and records for this station are not official NWS values.
T = Trace of Precipitation, MM = Missing Value Source: Averaged Metar Reports

Daily Weather History Graph

Daily Weather History Graph

Search for Another Location

Airport:

Trip Planner

Search our weather history database for the weather conditions in past years. The results will help you decide how hot, cold, wet, or windy it might be!

Date:

Astronomy

Jan. 18, 2013 Rise Set
Actual Time 7:28 AM JST 6:18 PM JST
Civil Twilight 7:04 AM JST 6:43 PM JST
Nautical Twilight 6:36 AM JST 7:10 PM JST
Astronomical Twilight 6:09 AM JST 7:38 PM JST
Moon 11:37 AM JST (1/18) No Moon Set
Length of Visible Light 11h 38m
Length of Day
10h 50m
Waxing Crescent, 41% of the Moon is Illuminated
Jan 18
Waxing Crescent
Jan 19
First Quarter
Jan 27
Full
Feb 3
Last Quarter
Feb 10
New

Hourly Weather History & Observations

Time (JST) Temp. Dew Point Humidity Pressure Visibility Wind Dir Wind Speed Gust Speed Precip Events Conditions
3:00 AM 57 °F 41 °F 45% 30.32 in 6 mi North 16.1 mph - -   Partly Cloudy
6:00 AM 56 °F 42 °F 49% 30.35 in 6 mi NNE 15.0 mph - - Rain Light Rain
6:00 AM 55.4 °F 41.0 °F 58% 30.33 in 6.2 mi NNE 17.3 mph - N/A   Mostly Cloudy
7:00 AM 55.4 °F 42.8 °F 63% 30.33 in 6.2 mi North 13.8 mph - N/A   Mostly Cloudy
8:00 AM 55.4 °F 41.0 °F 58% 30.36 in 6.2 mi North 12.7 mph - N/A   Mostly Cloudy
9:00 AM 57 °F 41 °F 43% 30.40 in 12 mi NNE 11.5 mph - -   Partly Cloudy
9:00 AM 55.4 °F 41.0 °F 58% 30.39 in 6.2 mi NNE 15.0 mph - N/A   Mostly Cloudy
10:00 AM 57.2 °F 41.0 °F 55% 30.39 in 6.2 mi NNE 13.8 mph - N/A   Mostly Cloudy
11:00 AM 57.2 °F 42.8 °F 59% 30.39 in 6.2 mi NNE 11.5 mph - N/A   Mostly Cloudy
12:00 PM 60 °F 41 °F 38% 30.37 in 12 mi NNE 12.7 mph - - Rain Light Rain
12:00 PM 59.0 °F 41.0 °F 51% 30.36 in 6.2 mi North 13.8 mph - N/A   Mostly Cloudy
1:00 PM 60.8 °F 44.6 °F 55% 30.30 in 6.2 mi North 15.0 mph - N/A   Mostly Cloudy
2:00 PM 60.8 °F 42.8 °F 52% 30.27 in 6.2 mi North 16.1 mph - N/A   Mostly Cloudy
3:00 PM 61 °F 44 °F 42% 30.29 in 12 mi NNE 16.1 mph - -   Partly Cloudy
3:00 PM 60.8 °F 44.6 °F 55% 30.27 in 6.2 mi North 15.0 mph - N/A   Mostly Cloudy
4:00 PM 60.8 °F 46.4 °F 59% 30.24 in 6.2 mi NNE 15.0 mph - N/A   Partly Cloudy
5:00 PM 62.6 °F 44.6 °F 52% 30.27 in 6.2 mi NNE 15.0 mph - N/A   Partly Cloudy
6:00 PM 59 °F 46 °F 52% 30.30 in 16 mi NNE 11.5 mph - -   Mostly Cloudy
6:00 PM 57.2 °F 46.4 °F 67% 30.27 in 6.2 mi NNE 11.5 mph - N/A   Scattered Clouds
7:00 PM 59.0 °F 48.2 °F 67% 30.27 in 6.2 mi North 10.4 mph - N/A   Mostly Cloudy
8:00 PM 57.2 °F 46.4 °F 67% 30.30 in 6.2 mi North 10.4 mph - N/A   Scattered Clouds
9:00 PM 59 °F 49 °F 60% 30.32 in 12 mi NNE 6.9 mph - - Rain Light Rain